DECAYED

STARLINK-30373, 57790 (Decayed)

Orbit data source: Space-Track

STARLINK-30373, 57790 was a payload satellite owned by SpaceX/Seattle (US) in LEO that was launched on Mon, 04 Sep 2023 UTC via an FALCON 9 launch vehicle from the Air Force Eastern Test Range (AFETR). Payload-class satellites include a variety of spacecraft equipped with specific instruments for various scientific and technological missions. These include communications satellites like Starlink; space stations such as the ISS; scientific satellites like the Hubble; Earth observation satellites from companies like Planet Labs, Umbra, and HawkEye 360; GPS; miniature CubeSats for education and research; and military/defense satellites.

Not visible in the next 10 days
Identifier
57790, 2023-134V
Orbit
Decayed
Country
Flag of USUS
Related business
Manufacturer
SpaceX/Seattle
Mission
Decayed Commercial Communications
Bus & Motor
STARLINK V2M, Unknown motor
Mass
730 kg wet, ~700 kg dry
Launch date (UTC)
2023-09-04 (3 years ago)
Launch vehicle
FALCON 9
Launch site
Air Force Eastern Test Range (AFETR)
Object type
Payload
Rocket body
Debris
Shape & HBR
Box + 2 Pan, 17.7 m
Radar Cross Section
33.884 m², Large (>1 m²)

Expand to show TLE details & history
Last TLE update: 9 months ago

TLE from 9 months ago
0 STARLINK-30373
1 57790U 23134V   25265.81928913  .06516543  90516-5  26563-2 0  9992
2 57790  42.9749 307.7332 0020145  54.6118 305.6647 16.21812878115177
Epoch: 2025-09-22T19:39Z
TLE epoch observation values (Epoch: 2025-09-22T19:39:46.580Z)
Latitude
Longitude
10.87112°
Altitude
206.673 km
Speed
7.789 km/s
True Right ascension
20h 30m 55s
True Declination
0° 00' 00"
Sunlit
Object was in full shadow at epoch
Visualization orbit readout
Latitude
Unknown
Longitude
Unknown
Altitude
Unknown
Speed
Unknown
Apparent Right ascension
Unknown
Apparent Declination
Unknown
Sunlit
N/A
Visualization observer readout
Local Sidereal Time
21:34:15
Azimuth
Unknown
Elevation
Unknown
Doppler factor
Unknown
Orbital elements
Apogee altitude
229.948 km
Perigee altitude
203.378 km
Semi-major axis
6,594.8 km
Eccentricity
0.00201
Inclination
42.9749°
RAAN
307.7332°
Arg. of periapsis
54.6118°
True anomaly
305.47688°
Mean anomaly
305.6647°
Eccentric anomaly
305.57082°
Mean motion
4.05267 °/min
Orbital period
88.83 mins
BSTAR
0.0026563
Loading maneuver chart data...
Computing Atmospheric mass density...
Loading historical data...
Loading historical data...
Loading historical data...
Loading historical data...
Loading historical data...
Loading historical data...
Loading historical data...

Documentation

Showing up to 5 results
|